Location: Austin
(30.3000°N, 97.7500°W)
Time: 06:15:25
(UTC-05:00)

USA 229 - Pass Details

Date: 16 June 2025
Orbit: 856 x 1355 km, 63.4° (Epoch: 26 June)

Event Time Altitude Azimuth Distance (km) Brightness Sun altitude
Rises 03:30:18 0° 331° (NNW) 4,103 7.1 -29.3°
Reaches altitude 10° 03:32:58 10° 332° (NNW) 3,198 6.5 -29.0°
Maximum altitude 03:40:51 85° 62° (ENE) 1,322 4.1 -28.0°
Enters shadow 03:48:07 15° 150° (SSE) 3,015 5.8 -27.2°
